Weather History for KLNR - November, 2011

Change the Weather History Date:

Thursday, November 17, 2011

  Actual Average Record
Temperature  
Mean Temperature 26 °F -  
Max Temperature 33 °F 43 °F 64 °F (2004)
Min Temperature 19 °F 27 °F 1 °F (2014)
Degree Days  
Heating Degree Days 39    
Moisture  
Dew Point 11 °F    
Average Humidity 55    
Maximum Humidity 74    
Minimum Humidity 37    
Precipitation  
Precipitation 0.00 in - - ()
Sea Level Pressure  
Sea Level Pressure 30.17 in    
Wind  
Wind Speed 10 mph (West)    
Max Wind Speed 14 mph    
Max Gust Speed 23 mph    
Visibility 10 miles    
Events      
Averages and records for this station are not official NWS values.
T = Trace of Precipitation, MM = Missing Value Source: NWS Daily Summary

Daily Weather History Graph

Daily Weather History Graph

Search for Another Location

Airport or City:

Trip Planner

Search our weather history database for the weather conditions in past years. The results will help you decide how hot, cold, wet, or windy it might be!

Date:

Astronomy

Nov. 17, 2011 Rise Set
Actual Time 6:55 AM CST 4:34 PM CST
Civil Twilight 6:25 AM CST 5:05 PM CST
Nautical Twilight 5:50 AM CST 5:40 PM CST
Astronomical Twilight 5:16 AM CST 6:14 PM CST
Moon 10:59 PM CST (11/17) 12:02 PM CST (11/17)
Length of Visible Light 10h 40m
Length of Day
9h 39m
Waning Gibbous, 59% of the Moon is Illuminated
Nov 17
Waning Gibbous
Nov 18
Last Quarter
Nov 25
New
Dec 2
First Quarter
Dec 10
Full

Hourly Weather History & Observations

Time (CST) Temp. Windchill Dew Point Humidity Pressure Visibility Wind Dir Wind Speed Gust Speed Precip Events Conditions
12:56 AM 28.0 °F 17.5 °F 12.0 °F 51% 30.13 in 10.0 mi West 12.7 mph - N/A   Clear
1:56 AM 27.0 °F 16.1 °F 10.9 °F 51% 30.14 in 10.0 mi West 12.7 mph 23.0 mph N/A   Clear
2:56 AM 25.0 °F 16.3 °F 12.0 °F 58% 30.14 in 10.0 mi West 8.1 mph - N/A   Clear
3:56 AM 24.1 °F 14.4 °F 12.0 °F 60% 30.15 in 10.0 mi West 9.2 mph - N/A   Clear
4:56 AM 23.0 °F 13.9 °F 12.0 °F 63% 30.15 in 10.0 mi West 8.1 mph - N/A   Clear
5:56 AM 23.0 °F 14.7 °F 12.0 °F 63% 30.16 in 10.0 mi West 6.9 mph - N/A   Clear
6:56 AM 21.0 °F 14.6 °F 12.0 °F 68% 30.17 in 10.0 mi West 4.6 mph - N/A   Clear
7:56 AM 21.9 °F 12.5 °F 12.9 °F 68% 30.19 in 10.0 mi West 8.1 mph - N/A   Clear
8:56 AM 25.0 °F 13.6 °F 12.0 °F 58% 30.20 in 10.0 mi West 12.7 mph - N/A   Clear
9:56 AM 27.0 °F 15.6 °F 10.9 °F 51% 30.21 in 10.0 mi West 13.8 mph - N/A   Clear
10:56 AM 28.9 °F 18.2 °F 12.0 °F 49% 30.21 in 10.0 mi West 13.8 mph - N/A   Clear
11:56 AM 30.9 °F 22.8 °F 10.9 °F 43% 30.19 in 10.0 mi WNW 9.2 mph - N/A   Clear
12:56 PM 32.0 °F 22.1 °F 10.0 °F 40% 30.18 in 10.0 mi WNW 13.8 mph 19.6 mph N/A   Clear
1:56 PM 32.0 °F 22.5 °F 8.1 °F 37% 30.17 in 10.0 mi West 12.7 mph 21.9 mph N/A   Clear
2:56 PM 33.1 °F 24.4 °F 9.0 °F 37% 30.17 in 10.0 mi WSW 11.5 mph - N/A   Clear
3:56 PM 32.0 °F 26.4 °F 9.0 °F 38% 30.17 in 10.0 mi West 5.8 mph - N/A   Clear
4:56 PM 28.0 °F 22.8 °F 10.0 °F 47% 30.17 in 10.0 mi SW 4.6 mph - N/A   Clear
5:56 PM 24.1 °F - 12.0 °F 60% 30.18 in 10.0 mi Calm Calm - N/A   Clear
7:56 PM 21.0 °F 16.2 °F 12.0 °F 68% 30.17 in 10.0 mi ESE 3.5 mph - N/A   Clear
8:56 PM 19.9 °F - 12.9 °F 74% 30.15 in 10.0 mi Calm Calm - N/A   Clear
10:56 PM 21.9 °F 12.5 °F 14.0 °F 72% 30.12 in 10.0 mi East 8.1 mph - N/A   Clear